[[{"header":{"parameterUnit":"m.s-1","parameterCategory":1,"la1":30.2991,"la2":30.254,"lo1":-89.0895,"lo2":-89.0444,"dy":0.0017,"dx":0.0017,"nx":28,"ny":28,"refTime":"2025-04-25T09:00:00:Z","depth":0,"parameterNumber":2,"parameterNumberName":"U-component_of_WINDS"},"data":[0,0,0,0,0,0,0,0,0,0,0,0,0,0,0,0,0,0,0,0,0,0,0,0,0,0,0,0,0,0,0,0,0,0,0,0,0,0,0,0,0,0,0,0,0,0,0,0,0,0,0,0,0,0,0,0,0,0,0.2062,0.2063,0,0.2171,0.2172,0.2174,0.2222,0.2222,0.2222,0.2222,0.2336,0.2339,0.2342,0,0,0,0,0,0,0,0,0,0,0,0,0,0.1898,0.1901,0.2062,0.2064,0.2065,0.2171,0.2172,0.2174,0.2222,0.2222,0.2222,0.2222,0.2335,0.2339,0.2343,0,0,0,0,0,0,0,0,0,0,0,0,0,0.1985,0.1902,0.2062,0.2102,0.2106,0.2171,0.2172,0.2174,0.2222,0.2222,0.2222,0.2222,0.2334,0.2338,0.2343,0.2377,0,0,0.2358,0.236,0,0,0,0,0,0,0,0,0.198,0.1991,0.2095,0.2099,0.2105,0.2183,0.2157,0.2242,0.2222,0.2178,0.2222,0.2222,0.2286,0.2294,0.2315,0.2382,0.2387,0.2358,0.2361,0.2363,0.2364,0,0,0,0,0,0,0,0.1974,0.1986,0.2105,0.2096,0.2102,0.2115,0.2127,0.2173,0.2232,0.2182,0.2186,0.2198,0.2288,0.231,0.2318,0.2389,0.2358,0.2362,0.2365,0.2367,0.2488,0.2488,0,0,0,0,0,0,0.1961,0.1981,0.2102,0.2109,0.204,0.2118,0.2131,0.2158,0.2232,0.2242,0.2198,0.22,0.2302,0.2313,0.2322,0.2366,0.2363,0.2367,0.237,0.2488,0.2488,0.2488,0,0,0,0,0,0,0.1957,0.1971,0.2098,0.2046,0.2063,0.2121,0.215,0.216,0.2183,0.2243,0.2254,0.221,0.2303,0.2316,0.2362,0.2371,0.237,0.2374,0.2487,0.2488,0.2488,0.2454,0,0,0,0,0,0,0.1952,0.1969,0.1982,0.2046,0.2065,0.2135,0.2151,0.2162,0.219,0.2194,0.2257,0.2268,0.2304,0.2355,0.2367,0.2377,0.2378,0.2487,0.2487,0.2488,0.2455,0.2453,0.2452,0,0,0,0,0,0.1946,0.1969,0.1983,0.1997,0.2083,0.2135,0.2147,0.2187,0.2191,0.2204,0.2243,0.2266,0.2368,0.2359,0.2374,0.2385,0.2486,0.2487,0.2488,0.2455,0.2454,0.2452,0,0,0,0,0,0,0.1906,0.1978,0.1994,0.2038,0.208,0.2144,0.2162,0.2184,0.2226,0.2228,0.2276,0.229,0.2332,0.2364,0.2353,0.2421,0.2429,0.2433,0.2399,0.2398,0.2397,0.2389,0.2382,0,0,0,0,0,0.1903,0.1939,0.2,0.2033,0.2053,0.2104,0.2128,0.2155,0.2201,0.2219,0.2262,0.2306,0.2348,0.2375,0.2417,0.2459,0.2474,0.2474,0.2473,0.2472,0.2474,0.2499,0.25,0.2491,0.2491,0.2491,0,0,0.1896,0.1939,0.1959,0.2026,0.2062,0.2099,0.2118,0.2157,0.2185,0.2225,0.2272,0.2304,0.2357,0.2401,0.2423,0.2429,0.248,0.2473,0.2471,0.2475,0.25,0.2501,0.2501,0.2492,0.2492,0.2491,0,0,0.1901,0.1938,0.1969,0.2004,0.2058,0.2091,0.2098,0.2158,0.2181,0.2228,0.2259,0.2294,0.2365,0.2401,0.2429,0.2447,0.2469,0.246,0.2453,0.2477,0.2477,0.2478,0.2485,0.2487,0.2462,0.2462,0.2462,0,0.1886,0.1942,0.1983,0.2019,0.2048,0.2085,0.2117,0.2149,0.2214,0.2233,0.2238,0.2328,0.2366,0.2419,0.2423,0.2445,0.2455,0.2453,0.2474,0.2475,0.2476,0.2483,0.2486,0.246,0.2461,0.2461,0.2461,0,0.1921,0.1959,0.1978,0.2038,0.2069,0.2103,0.2149,0.2176,0.2199,0.2232,0.228,0.2326,0.2378,0.2393,0.2417,0.2449,0.2451,0.2464,0.2473,0.2475,0.2482,0.2485,0.2458,0.2459,0.2459,0.246,0,0,0.1906,0.1987,0.1993,0.2021,0.2082,0.2113,0.2149,0.2198,0.222,0.2263,0.2295,0.2353,0.2366,0.2397,0.2425,0.2446,0.2457,0.2457,0.2458,0.2455,0.2496,0.2486,0.2488,0.2472,0.2472,0.2473,0.2491,0,0.192,0.1985,0.2022,0.2072,0.2108,0.2143,0.2175,0.2216,0.2247,0.2283,0.2318,0.2359,0.2372,0.2391,0.2412,0.2451,0.2466,0.245,0.2502,0.2504,0.2488,0.2492,0.2482,0.2497,0.2494,0.2495,0.2495,0,0.1946,0.1987,0.204,0.2097,0.2113,0.214,0.2189,0.2222,0.2269,0.2291,0.2325,0.2353,0.2393,0.2398,0.2453,0.2441,0.2465,0.2487,0.2488,0.2495,0.25,0.2499,0.2503,0.2505,0.25,0.25,0.2499,0,0.1929,0.1998,0.2039,0.2062,0.2128,0.2147,0.2176,0.2223,0.225,0.2292,0.2311,0.2357,0.2383,0.2419,0.2459,0.2458,0.251,0.2518,0.253,0.2528,0.2539,0.2538,0.2547,0.2553,0.2553,0.2553,0.2553,0,0.1942,0.1973,0.2032,0.2057,0.2093,0.2136,0.217,0.2202,0.2243,0.2276,0.2309,0.2339,0.239,0.2426,0.2457,0.2498,0.251,0.2528,0.2537,0.2526,0.2523,0.2542,0.2542,0.2554,0.2554,0.2554,0.2554,0,0.193,0.1971,0.2018,0.2077,0.2092,0.2116,0.2167,0.2193,0.2225,0.2266,0.2278,0.2329,0.2373,0.2416,0.2476,0.2497,0.2538,0.2549,0.2522,0.2526,0.2535,0.2534,0.2557,0.2562,0.2564,0.2564,0.2564,0,0.1935,0.196,0.2021,0.2045,0.2073,0.211,0.2138,0.218,0.2208,0.2263,0.2282,0.2328,0.2368,0.2437,0.248,0.2526,0.2538,0.2543,0.2545,0.2533,0.2538,0.2536,0.2539,0.2542,0.2541,0.2541,0.2541,0,0.1941,0.196,0.1998,0.2043,0.2075,0.2113,0.2152,0.2169,0.2219,0.2249,0.2294,0.2324,0.2384,0.243,0.248,0.2511,0.2534,0.254,0.2545,0.2534,0.2518,0.2527,0.2519,0.2539,0.2539,0.254,0.254,0.254,0.1938,0.1962,0.2008,0.205,0.2083,0.2119,0.2146,0.2181,0.2219,0.2271,0.2293,0.2339,0.2385,0.2455,0.2485,0.2521,0.2527,0.2535,0.2537,0.2538,0.2535,0.2511,0.2531,0.2531,0.2531,0.2531,0.2531,0,0.1945,0.1977,0.2014,0.2067,0.21,0.2118,0.2162,0.2188,0.2227,0.2268,0.2306,0.2357,0.2401,0.2448,0.2495,0.2515,0.2527,0.2526,0.2525,0.2532,0.2527,0.2518,0.2515,0.2515,0.2515,0.2515,0.2515,0.2515,0.1953,0.1993,0.2017,0.2075,0.2107,0.215,0.2174,0.2207,0.224,0.2295,0.2332,0.2361,0.2404,0.2454,0.2496,0.2508,0.2524,0.252,0.2536,0.2531,0.2532,0.2533,0.2525,0.2523,0.2523,0.2537,0.2537,0.2537]},{"header":{"parameterUnit":"m.s-1","parameterCategory":1,"la1":30.2991,"la2":30.254,"lo1":-89.0895,"lo2":-89.0444,"dy":0.0017,"dx":0.0017,"nx":28,"ny":28,"refTime":"2025-04-25T09:00:00:Z","depth":0,"parameterNumber":3,"parameterNumberName":"V-component_of_WINDS"},"data":[0,0,0,0,0,0,0,0,0,0,0,0,0,0,0,0,0,0,0,0,0,0,0,0,0,0,0,0,0,0,0,0,0,0,0,0,0,0,0,0,0,0,0,0,0,0,0,0,0,0,0,0,0,0,0,0,0,0,2.5264,2.5263,0,2.5246,2.5246,2.5246,2.5249,2.5249,2.525,2.525,2.5228,2.5227,2.5226,0,0,0,0,0,0,0,0,0,0,0,0,0,2.5296,2.5295,2.5264,2.5263,2.5263,2.5246,2.5246,2.5246,2.5249,2.5249,2.525,2.525,2.5228,2.5227,2.5226,0,0,0,0,0,0,0,0,0,0,0,0,0,2.528,2.5295,2.5264,2.5263,2.5263,2.5246,2.5246,2.5246,2.5249,2.5249,2.525,2.525,2.5228,2.5227,2.5226,2.5208,0,0,2.5222,2.5221,0,0,0,0,0,0,0,0,2.5281,2.5279,2.5263,2.5263,2.5263,2.525,2.5249,2.5233,2.5249,2.5254,2.525,2.5251,2.5235,2.5233,2.5228,2.5207,2.5206,2.5222,2.5221,2.522,2.522,0,0,0,0,0,0,0,2.5282,2.528,2.5257,2.5263,2.5263,2.5262,2.526,2.5246,2.5242,2.5254,2.5254,2.5252,2.5234,2.523,2.5228,2.5205,2.5222,2.522,2.522,2.5219,2.5168,2.5167,0,0,0,0,0,0,2.5284,2.5281,2.5257,2.5256,2.5273,2.5261,2.5259,2.5254,2.5242,2.5241,2.5252,2.5252,2.5232,2.5229,2.5227,2.5205,2.522,2.5219,2.5218,2.5168,2.5168,2.5167,0,0,0,0,0,0,2.5285,2.5282,2.5258,2.5268,2.5265,2.526,2.5254,2.5253,2.5248,2.524,2.5239,2.5248,2.5232,2.5229,2.5213,2.5204,2.5218,2.5217,2.5169,2.5168,2.5167,2.5161,0,0,0,0,0,0,2.5286,2.5282,2.5276,2.5268,2.5265,2.5245,2.5253,2.5252,2.5246,2.5247,2.5236,2.5235,2.5232,2.5215,2.5211,2.5203,2.5216,2.517,2.5168,2.5167,2.5162,2.516,2.5158,0,0,0,0,0,2.5287,2.5274,2.5276,2.5273,2.5257,2.5245,2.5242,2.5241,2.5246,2.5239,2.5234,2.5235,2.5206,2.5213,2.5209,2.52,2.517,2.5169,2.5168,2.5162,2.516,2.5158,0,0,0,0,0,0,2.5279,2.5273,2.5275,2.526,2.5253,2.5245,2.5237,2.5238,2.5229,2.5229,2.5226,2.5224,2.5207,2.5202,2.521,2.5182,2.5188,2.5186,2.5186,2.5184,2.5182,2.5183,2.5215,0,0,0,0,0,2.5276,2.5268,2.5262,2.5249,2.5246,2.5242,2.5236,2.5236,2.5228,2.5224,2.5218,2.5209,2.5198,2.5191,2.518,2.5161,2.5158,2.5153,2.5151,2.515,2.5148,2.5137,2.5134,2.5163,2.5163,2.5163,0,0,2.5269,2.5265,2.5259,2.5247,2.5242,2.5232,2.5239,2.5228,2.522,2.5222,2.5207,2.5202,2.5192,2.5174,2.5166,2.5169,2.5139,2.5148,2.5147,2.5146,2.5135,2.5133,2.513,2.5162,2.5162,2.5162,0,0,2.5251,2.5247,2.5236,2.5231,2.5223,2.5221,2.5218,2.521,2.5208,2.5193,2.5194,2.5184,2.5165,2.5157,2.5151,2.5131,2.5131,2.5127,2.5118,2.5108,2.5105,2.5103,2.5095,2.5093,2.5126,2.5126,2.5126,0,2.5243,2.5229,2.5229,2.5219,2.5213,2.5216,2.5204,2.5198,2.5187,2.5182,2.5187,2.5163,2.5156,2.5137,2.5132,2.5127,2.5123,2.5128,2.5106,2.5104,2.5102,2.5094,2.5092,2.5125,2.5125,2.5125,2.5125,0,2.5219,2.5209,2.5201,2.5192,2.5185,2.5174,2.5171,2.5164,2.5164,2.5161,2.5145,2.5138,2.5126,2.5121,2.512,2.5102,2.5104,2.5107,2.5113,2.5099,2.5092,2.5089,2.5124,2.5125,2.5125,2.5125,0,0,2.5195,2.5187,2.5184,2.5179,2.5172,2.5163,2.5152,2.5141,2.5135,2.5127,2.5117,2.5101,2.5104,2.5097,2.5095,2.5086,2.507,2.5091,2.509,2.5087,2.5049,2.5046,2.5043,2.5071,2.5071,2.507,2.5049,0,2.5176,2.5157,2.5157,2.5139,2.513,2.5132,2.5122,2.5115,2.5112,2.5103,2.5099,2.5087,2.5093,2.5088,2.508,2.5074,2.5063,2.5076,2.506,2.5059,2.5062,2.5039,2.5036,2.5017,2.5047,2.5046,2.5046,0,2.5151,2.5144,2.5125,2.5119,2.5115,2.5106,2.5096,2.5088,2.508,2.5078,2.5071,2.5071,2.5058,2.5066,2.5047,2.5056,2.5049,2.5045,2.5045,2.5042,2.5051,2.5036,2.5011,2.5008,2.5041,2.5042,2.5042,0,2.5135,2.512,2.5107,2.5104,2.5096,2.509,2.5086,2.5079,2.5073,2.5064,2.506,2.5049,2.5043,2.5034,2.503,2.5036,2.5011,2.5019,2.5008,2.5009,2.5002,2.5003,2.4975,2.4999,2.4999,2.4999,2.4999,0,2.5113,2.5101,2.51,2.5092,2.5079,2.5079,2.5065,2.5062,2.5055,2.5046,2.5047,2.5038,2.5034,2.5024,2.5021,2.5006,2.5003,2.5,2.4999,2.5,2.5,2.4995,2.4996,2.4999,2.4999,2.4999,2.4999,0,2.5092,2.5091,2.5077,2.5072,2.507,2.5061,2.5055,2.5047,2.5044,2.5032,2.5029,2.5024,2.5012,2.5009,2.4993,2.4992,2.4973,2.4974,2.4976,2.4976,2.4966,2.4967,2.4934,2.4929,2.4956,2.4956,2.4956,0,2.5078,2.5069,2.5063,2.5058,2.5054,2.5045,2.5039,2.5039,2.5032,2.5023,2.5016,2.5004,2.4995,2.4975,2.497,2.4958,2.4958,2.4947,2.4956,2.4957,2.4957,2.4958,2.4956,2.4945,2.4945,2.4945,2.4945,0,2.5053,2.5053,2.5045,2.5038,2.5031,2.5024,2.5018,2.5013,2.5011,2.5003,2.4992,2.4985,2.4971,2.4959,2.4947,2.4942,2.4942,2.4942,2.4939,2.4939,2.4941,2.4939,2.4971,2.4943,2.4943,2.4943,2.4943,2.4943,2.5035,2.5027,2.5022,2.5013,2.5009,2.5003,2.4995,2.4992,2.4983,2.4972,2.4972,2.496,2.4952,2.4937,2.4931,2.492,2.4923,2.4918,2.4917,2.4916,2.4915,2.4943,2.4918,2.4918,2.4918,2.4918,2.4918,0,2.5009,2.5007,2.4999,2.499,2.4983,2.4987,2.498,2.4973,2.4963,2.4956,2.4947,2.4934,2.4923,2.4917,2.4905,2.4898,2.4898,2.4894,2.4895,2.4893,2.4913,2.4917,2.4895,2.4895,2.4895,2.4895,2.4895,2.4895,2.4995,2.4983,2.4983,2.4967,2.4964,2.4953,2.4949,2.4943,2.4938,2.4924,2.4915,2.4912,2.4905,2.4893,2.4882,2.4881,2.4876,2.4873,2.4871,2.489,2.4892,2.4894,2.4898,2.4872,2.4872,2.4852,2.4852,2.4852]}]]